weather.gov     
National Weather Service

Regional Weather Roundup
NWS Homepage
This page is being discontinued on March 12, 2014.
The same data is available at this site. Please update your bookmarks.
Thank you, and we apologize for the inconvenience.
Please send an email to SR-SRH.Webmaster@noaa.gov with any concerns.


Current Version
Previous Version:    01  02  03  04  05  06  07  08  09  10  11  12  13  14  15  16  17  18  19  20  21  22  23  24  25  26  27  
[Printable]
953
ASUS45 KREV 250310
RWRNV
NEVADA REGIONAL WEATHER ROUNDUP
NATIONAL WEATHER SERVICE RENO NV
800 PM PDT THU APR 24 2014

NOTE: "FAIR" INDICATES FEW OR NO CLOUDS BELOW 12,000 FEET WITH NO
SIGNIFICANT WEATHER AND/OR OBSTRUCTIONS TO VISIBILITY.

NVZ001-003-004-250400-
WESTERN NEVADA

CITY           SKY/WX    TMP DP  RH WIND       PRES   REMARKS
RENO           CLOUDY    59  13  16 SW15      29.92S
CARSON CITY    CLOUDY    55  25  30 W15G23    29.94S
MINDEN         PTCLDY    55  28  35 SW20G26   29.96S
SLIDE MTN        N/A     32  14  47 W47         N/A
FALLON         CLOUDY    62  21  20 W17G25    29.87S
LOVELOCK       CLOUDY    61  15  16 W14       29.85S
HAWTHORNE      PTCLDY    66  32  28 S8        29.88R
$$

NVZ002-CAZ072-073-250400-
NORTHERN AND CENTRAL SIERRA

CITY           SKY/WX    TMP DP  RH WIND       PRES   REMARKS
S. LAKE TAHOE  CLOUDY    48  20  32 SW9G21    29.99S
TRUCKEE        CLOUDY    45  21  39 SW9       30.00S
SQUAW VLY 8000 NOT AVBL
SUSANVILLE     CLEAR     54  32  43 SW7       29.90
BLUE CANYON    CLOUDY    45  36  70 SE8       30.02F
MAMMOTH LAKES  MOCLDY    48  25  40 W5        30.01S
BRIDGEPORT     FAIR      46  23  40 SW13G29   29.99S
$$

NVZ030-031-036-250400-
NORTHERN NEVADA

CITY           SKY/WX    TMP DP  RH WIND       PRES   REMARKS
ELKO           MOCLDY    55  27  34 CALM      29.89F
WINNEMUCCA     CLOUDY    58  16  19 W8        29.86R
WENDOVER       CLOUDY    63  25  23 SW8       29.87R
$$

NVZ035-037-250400-
CENTRAL NEVADA

CITY           SKY/WX    TMP DP  RH WIND       PRES   REMARKS
ELY            CLOUDY    58  23  26 NW12G24   29.92R
EUREKA           N/A     55  26  32 CALM      29.94F
$$

NVZ013-014-250400-
SOUTH CENTRAL NEVADA

CITY           SKY/WX    TMP DP  RH WIND       PRES   REMARKS
TONOPAH        CLOUDY    62  24  23 N13       29.90S
$$

NVZ017-020-022-250400-
SOUTHERN NEVADA

CITY           SKY/WX    TMP DP  RH WIND       PRES   REMARKS
LAS VEGAS      PTCLDY    80  10   7 SW14      29.75S
N. LAS VEGAS   CLEAR     80  10   7 SW5       29.78S
NELLIS AFB     NOT AVBL
HENDERSON      CLEAR     77  12   8 SW10      29.82S
MERCURY        CLEAR     72   3   6 S13       29.83S
$$




U.S. Dept. of Commerce
NOAA National Weather Service
1325 East West Highway
Silver Spring, MD 20910
E-mail: w-nws.webmaster@noaa.gov
Page last modified: May 16, 2007
NATIONAL WEATHER SERVICE: for Safety, for Work, for Fun - FOR LIFE